CAPE
0 0 0 0 0 0 0 0 0 0 0 0 0 0 0 0 0 0 0 0 0 0 0 0 0 322 492 273 286 230 227 274 246 257 232 79 20 14 10 4 32 5 55 105
0 0 0 0 0 0 0 0 0 0 0 0 0 0 0 0 0 0 0 0 0 0 0 0 0 337 280 143 136 143 154 161 103 163 176 114 12 5 13 29 107 99 109 255
0 0 0 0 0 0 0 0 0 0 0 0 0 0 0 0 0 0 0 0 0 0 0 0 207 609 406 251 109 92 141 129 68 26 7 1 0 1 5 38 108 201 210 238
0 0 0 0 0 0 0 0 0 0 0 0 0 0 0 0 0 0 0 0 0 0 0 0 199 582 671 357 153 110 98 158 122 61 44 63 19 18 39 82 134 239 371 363
0 0 0 0 0 0 0 0 0 0 0 0 0 0 0 0 0 0 0 0 0 0 0 0 337 679 735 637 369 293 317 357 208 169 125 163 304 203 141 113 150 280 480 363
0 0 0 0 0 0 0 0 0 0 0 2 0 0 0 0 1 0 0 0 0 0 0 0 400 996 679 718 641 409 385 272 147 132 54 163 597 363 241 161 240 342 483 328
0 0 0 0 0 0 0 0 0 2 1 20 4 1 2 0 93 119 13 0 0 0 0 0 674 1130 872 624 528 498 394 331 430 216 220 113 672 678 387 315 431 470 435 314
0 0 0 0 0 0 0 0 0 0 0 2 0 1 8 25 154 216 374 70 0 0 0 0 835 1128 1044 761 636 679 685 668 565 479 452 297 587 687 647 433 402 448 449 361
0 0 0 0 0 0 0 0 0 0 0 0 0 0 2 16 95 185 325 356 109 0 0 40 741 895 1315 901 608 748 921 809 904 677 487 259 468 530 370 410 488 407 321 375
0 0 0 0 0 0 0 0 0 0 0 0 0 0 30 31 182 196 233 269 206 191 0 190 560 848 1154 992 793 740 1063 1050 902 780 512 453 403 342 421 423 311 211 284 412
0 0 0 0 0 0 0 0 12 1 0 1 1 14 28 113 143 208 439 305 276 237 0 510 684 793 886 1057 949 844 664 896 907 661 273 263 122 191 260 252 215 263 303 389
0 0 0 0 0 0 12 0 22 0 0 0 3 25 58 184 229 385 738 711 632 456 183 272 701 850 659 856 1106 986 936 935 541 487 357 46 1 5 107 270 299 386 361 355
2 0 0 0 0 0 0 0 0 5 2 0 0 0 117 184 50 373 595 787 557 914 191 462 692 730 774 688 717 928 1062 939 513 337 150 364 316 255 171 303 420 339 341 164
4 0 0 0 0 1 0 7 0 37 0 0 0 5 94 93 175 193 433 641 666 559 1235 834 827 1010 1153 1051 1180 1334 1048 593 464 193 165 238 492 74 245 380 327 340 177 93
3 0 0 0 0 15 14 18 0 53 0 0 0 0 2 66 258 101 263 507 608 1239 1819 1432 1526 1659 1643 1718 1526 1328 1271 1038 777 515 520 453 394 72 200 276 237 203 86 59
2 0 2 0 0 3 0 0 1 13 0 0 0 0 20 0 8 172 173 513 676 977 1431 1607 1510 1975 2017 1792 1436 1355 1189 934 941 929 682 538 331 272 46 166 164 77 71 22
12 44 4 0 0 2 0 0 0 0 0 0 0 19 34 0 0 1 401 397 479 710 867 1277 1321 1449 1599 1475 1526 1468 1035 1095 785 516 370 288 301 123 73 109 37 48 0 1
14 7 0 0 0 0 15 0 0 14 27 5 0 8 37 14 0 17 199 503 371 517 673 749 1009 943 823 875 880 583 379 298 365 411 409 236 143 3 30 17 99 100 63 35
13 0 0 0 0 0 1 0 0 15 18 0 0 1 7 31 16 16 10 330 529 481 843 805 682 474 518 566 466 424 277 296 356 175 54 31 19 3 1 1 34 45 22 1
7 5 3 0 0 0 0 0 0 0 1 0 0 0 2 25 1 9 4 21 312 513 492 533 464 550 555 356 316 217 194 148 46 1 3 2 1 1 10 49 34 5 1 0
0 0 0 0 0 0 0 0 0 0 0 0 0 2 21 27 50 14 33 58 16 313 424 327 201 110 93 128 157 151 90 35 21 19 6 2 3 12 49 50 13 2 0 0
0 0 0 0 0 0 0 1 0 0 0 0 0 3 15 8 68 32 58 42 25 45 62 146 86 66 73 56 35 3 8 8 5 0 6 74 48 33 25 16 3 0 0 0
0 0 0 0 0 0 0 20 15 5 3 0 0 2 8 2 10 60 73 58 34 2 42 1 0 0 32 28 48 28 38 49 25 25 2 57 87 46 8 1 0 0 0 0
0 0 0 0 0 0 0 7 27 6 0 0 0 0 1 0 0 19 27 48 39 32 24 0 0 0 0 3 15 0 17 51 24 93 110 56 7 0 0 0 0 0 0 0
0 0 0 0 0 0 0 0 25 4 0 0 0 0 0 3 0 8 6 29 35 44 73 0 3 0 0 0 26 36 35 33 67 88 26 10 0 0 0 0 0 0 0 0
0 0 0 0 0 0 0 0 0 0 0 0 0 0 0 0 0 9 40 14 44 43 32 30 3 3 0 0 0 15 43 6 74 29 5 0 1 3 3 6 1 1 0 0
CIN
0 0 0 0 0 0 0 0 0 0 0 0 0 0 0 0 0 0 0 0 0 0 0 0 0 -191 -73 -131 -190 -273 -280 -252 -225 -116 -143 -176 -358 -353 -361 -643 -483 -527 -392 -178
0 0 0 0 0 0 0 0 0 0 0 0 0 0 0 0 0 0 0 0 0 0 0 0 0 -240 -168 -215 -186 -314 -267 -263 -278 -183 -157 -193 -318 -274 -351 -429 -333 -276 -339 -122
0 0 0 0 0 0 0 0 0 0 0 0 0 0 0 0 0 0 0 0 0 0 0 0 -243 -148 -184 -224 -347 -470 -362 -236 -166 -301 -280 -79 0 -47 -352 -282 -229 -150 -164 -86
0 0 0 0 0 0 0 0 0 0 0 0 0 0 0 0 0 0 0 0 0 0 0 0 -139 -107 -109 -203 -205 -429 -260 -207 -135 -376 -325 -224 -350 -383 -323 -257 -177 -130 -55 -20
0 0 0 0 0 0 0 0 0 0 0 0 0 0 0 0 0 0 0 0 0 0 0 0 -215 -118 -122 -116 -167 -134 -100 -105 -45 -248 -201 -139 -144 -206 -190 -201 -224 -115 -21 -39
0 0 0 0 0 0 0 0 0 0 0 0 0 0 0 0 -16 0 0 0 0 0 0 0 -210 -77 -106 -74 -45 -77 -100 -82 -186 -220 -144 -177 -119 -109 -116 -107 -3 -54 -19 -43
0 0 0 0 0 0 0 0 0 0 -13 -10 -6 -1 -6 -2 -75 -92 -94 0 0 0 0 0 -120 -19 -31 -49 -46 -84 -116 -133 -153 -249 -52 -69 -131 -36 -37 -70 -5 -8 -4 -41
0 0 0 0 0 0 0 0 0 0 0 -7 -6 -1 0 -50 -67 -92 -120 -139 0 0 0 0 -138 -61 -56 -66 -51 -72 -128 -139 -242 -190 -15 -40 -147 -33 -9 -4 -17 -11 -19 -16
0 0 0 0 0 0 0 0 0 -1 0 -2 0 0 0 -25 -44 -111 -87 -100 -296 0 0 -411 -205 -159 -64 -101 -126 -124 -144 -191 -218 -145 -67 -67 -56 -60 -124 -19 -9 -9 -34 -68
0 0 0 0 0 0 0 0 0 0 0 0 0 0 -7 -68 -90 -126 -190 -176 -189 -259 0 -389 -261 -208 -138 -174 -190 -225 -142 -104 -47 -13 -18 -4 -11 -40 -161 -42 -20 -125 -70 -24
0 0 0 0 0 0 0 0 0 -1 0 -1 0 -6 0 -4 -53 -121 -120 -181 -197 -262 0 -314 -274 -256 -286 -207 -185 -160 -124 -67 -4 -6 -137 -10 -28 -81 -57 -62 -60 -16 -11 -5
0 0 0 0 0 0 -5 0 0 0 0 0 -14 -19 -1 -2 -36 -63 -75 -124 -217 -275 -345 -418 -277 -293 -375 -260 -162 -111 -47 -12 -3 -54 -88 -266 -211 -33 -48 -3 -1 -14 0 -2
-2 0 0 0 0 0 0 0 -3 -1 0 -8 0 0 -1 -2 -48 -61 -78 -114 -202 -272 -257 -421 -297 -295 -329 -299 -220 -102 -38 -24 -28 -81 -142 -45 -91 -25 -5 0 -7 0 0 -13
-6 0 0 0 0 -1 0 -1 -2 -1 0 0 0 -4 0 -16 -32 -99 -89 -122 -240 -258 -284 -305 -280 -236 -186 -178 -109 -59 -72 -136 -122 -93 -30 -8 0 -32 0 0 0 0 0 -5
0 0 0 0 0 -5 -1 0 0 0 0 0 0 0 -21 -6 -6 -34 -59 -96 -138 -68 -82 -186 -156 -92 -102 -87 -81 -58 -45 -62 -77 -44 -11 -1 0 -12 0 0 -3 0 -7 -10
-1 0 -2 0 0 0 0 0 -2 -11 0 0 0 0 0 0 0 -1 -48 -65 -78 -78 -92 -92 -181 -92 -45 -57 -85 -70 -61 -63 -34 -1 -1 -2 0 0 0 0 -2 -17 -4 -28
-7 0 -1 0 0 0 0 0 0 0 0 0 0 0 0 0 0 -16 -1 -50 -79 -74 -114 -97 -103 -128 -96 -86 -66 -49 -74 -36 -27 -28 -7 -7 0 -6 -1 -1 0 0 0 -48
-3 -1 0 0 0 0 -1 0 0 0 0 -14 0 -6 0 0 0 -1 -1 -8 -63 -66 -82 -70 -62 -76 -127 -117 -102 -122 -118 -81 -27 -6 -1 -3 -1 -2 -1 0 -1 0 -1 -10
-1 0 0 0 0 0 0 0 0 0 0 0 0 -2 0 0 -2 -1 -2 -1 -4 -29 -16 -37 -47 -60 -86 -77 -94 -105 -105 -55 -9 -3 -5 -16 -60 -1 0 -5 -17 -12 -51 -17
-1 -8 0 0 0 0 0 0 0 -5 0 0 -1 0 -2 -1 -1 -40 0 -3 -2 -1 -21 -39 -43 -34 -47 -79 -61 -80 -51 -35 -4 -9 -1 0 -1 -1 -8 -1 -13 -9 -3 0
0 0 0 0 0 0 0 0 0 0 0 0 0 0 -16 0 -6 -1 0 -1 -8 0 -2 -3 -16 -36 -39 -10 -9 -13 -7 -1 -2 -1 -1 -1 -5 -14 -17 -33 -49 -1 0 -1
0 0 0 0 0 0 0 -5 0 0 0 0 0 -13 -12 -11 0 -11 0 -10 -5 -4 -1 -2 0 -7 -15 -20 -21 -6 0 0 0 0 -22 -3 -9 -38 -45 -73 -9 0 0 0
0 0 0 0 0 0 0 -18 -11 -8 -12 0 0 -18 -1 0 -5 0 0 0 -7 0 0 0 0 0 0 0 0 -10 -1 -1 0 0 0 -16 -2 -20 -52 0 0 0 0 0
0 0 0 0 0 0 0 -31 -13 -17 0 0 0 0 0 0 0 -13 -12 0 -2 -6 -6 0 0 0 0 0 0 0 -6 0 0 0 0 -7 -45 0 0 0 0 0 0 0
0 0 0 0 0 0 0 0 -14 -21 0 0 0 0 0 0 0 0 -14 -12 -11 -2 0 -6 0 0 0 0 0 0 0 -2 0 0 -28 -67 0 0 0 0 0 0 0 0
0 0 0 0 0 0 -1 0 0 0 0 0 0 0 0 0 0 0 -5 -9 -3 -13 -9 -2 -1 0 0 0 0 0 0 -2 0 -21 -55 0 0 0 -1 0 -1 -3 0 0
Wind_Speed
nan nan nan nan nan nan nan nan nan nan nan nan nan nan nan nan nan nan nan nan nan nan nan nan nan 60 60 60 58 58 56 48 47 43 35 nan nan nan nan nan nan nan nan 30
nan nan nan nan nan nan nan nan nan nan nan nan nan nan nan nan nan nan nan nan nan nan nan nan nan 62 60 56 58 60 58 65 46 39 37 34 nan nan nan nan 34 nan 32 30
nan nan nan nan nan nan nan nan nan nan nan nan nan nan nan nan nan nan nan nan nan nan nan nan 68 67 63 61 61 nan 73 66 nan nan nan nan nan nan nan nan 39 37 35 31
nan nan nan nan nan nan nan nan nan nan nan nan nan nan nan nan nan nan nan nan nan nan nan nan 70 75 66 64 63 68 nan 46 46 nan nan nan nan nan nan nan 41 40 35 35
nan nan nan nan nan nan nan nan nan nan nan nan nan nan nan nan nan nan nan nan nan nan nan nan 62 63 67 66 64 65 68 68 55 52 55 53 46 45 47 44 45 41 39 42
nan nan nan nan nan nan nan nan nan nan nan nan nan nan nan nan nan nan nan nan nan nan nan nan 53 55 59 60 60 55 59 48 52 61 nan 49 50 48 46 46 46 46 49 41
nan nan nan nan nan nan nan nan nan nan nan nan nan nan nan nan nan 4 nan nan nan nan nan nan 54 49 52 54 51 56 41 33 35 31 35 39 45 51 50 45 48 49 47 39
nan nan nan nan nan nan nan nan nan nan nan nan nan nan nan nan 12 6 17 nan nan nan nan nan 45 40 37 36 40 42 34 42 44 49 38 44 54 45 55 52 49 45 48 40
nan nan nan nan nan nan nan nan nan nan nan nan nan nan nan nan nan 15 16 18 32 nan nan nan 43 40 27 27 32 29 34 33 42 43 37 33 39 39 67 52 55 51 46 48
nan nan nan nan nan nan nan nan nan nan nan nan nan nan nan nan 23 26 26 24 26 29 nan 31 43 43 31 32 37 33 29 38 29 26 28 35 40 47 55 45 60 58 49 47
nan nan nan nan nan nan nan nan nan nan nan nan nan nan nan 12 16 22 27 24 22 27 nan 28 43 39 34 34 37 40 41 48 42 40 31 38 39 49 54 47 67 57 53 46
nan nan nan nan nan nan nan nan nan nan nan nan nan nan nan 12 15 13 23 24 21 25 25 32 45 38 30 36 40 44 47 45 43 39 39 nan nan nan 30 46 46 59 48 46
nan nan nan nan nan nan nan nan nan nan nan nan nan nan 13 11 nan 16 21 30 15 22 24 27 45 48 34 34 31 31 38 35 42 41 39 28 39 36 32 43 48 47 45 46
nan nan nan nan nan nan nan nan nan nan nan nan nan nan nan nan 15 22 25 27 22 17 18 22 38 51 40 24 21 36 41 37 40 41 47 41 49 nan 44 45 41 49 49 nan
nan nan nan nan nan nan nan nan nan nan nan nan nan nan nan nan 8 11 19 23 22 26 24 13 17 34 44 39 43 45 45 45 46 47 57 56 55 nan 56 59 54 54 nan nan
nan nan nan nan nan nan nan nan nan nan nan nan nan nan nan nan nan 19 21 24 25 28 34 26 28 31 37 46 56 50 51 55 56 54 64 58 60 43 nan 60 56 nan nan nan
nan nan nan nan nan nan nan nan nan nan nan nan nan nan nan nan nan nan 24 27 32 31 32 33 31 39 41 46 51 60 62 59 59 61 64 62 59 54 nan 58 nan nan nan nan
nan nan nan nan nan nan nan nan nan nan nan nan nan nan nan nan nan nan 30 32 33 34 31 29 27 31 36 40 43 49 53 60 56 62 60 58 58 nan nan nan nan 53 nan nan
nan nan nan nan nan nan nan nan nan nan nan nan nan nan nan nan nan nan nan 36 31 29 29 28 30 33 38 40 43 51 54 54 59 61 nan nan nan nan nan nan nan nan nan nan
nan nan nan nan nan nan nan nan nan nan nan nan nan nan nan nan nan nan nan nan 34 27 27 31 32 35 38 47 49 50 47 52 nan nan nan nan nan nan nan nan nan nan nan nan
nan nan nan nan nan nan nan nan nan nan nan nan nan nan nan nan nan nan nan nan nan 18 19 22 29 32 nan 44 49 44 nan nan nan nan nan nan nan nan nan nan nan nan nan nan
nan nan nan nan nan nan nan nan nan nan nan nan nan nan nan nan nan nan nan nan nan nan nan 15 nan nan nan nan nan nan nan nan nan nan nan nan nan nan nan nan nan nan nan nan
nan nan nan nan nan nan nan nan nan nan nan nan nan nan nan nan nan nan nan nan nan nan nan nan nan nan nan nan nan nan nan nan nan nan nan nan nan nan nan nan nan nan nan nan
nan nan nan nan nan nan nan nan nan nan nan nan nan nan nan nan nan nan nan nan nan nan nan nan nan nan nan nan nan nan nan nan nan nan 24 nan nan nan nan nan nan nan nan nan
nan nan nan nan nan nan nan nan nan nan nan nan nan nan nan nan nan nan nan nan nan nan nan nan nan nan nan nan nan nan nan nan nan nan nan nan nan nan nan nan nan nan nan nan
nan nan nan nan nan nan nan nan nan nan nan nan nan nan nan nan nan nan nan nan nan nan nan nan nan nan nan nan nan nan nan nan nan nan nan nan nan nan nan nan nan nan nan nan
Wind_Direction
nan nan nan nan nan nan nan nan nan nan nan nan nan nan nan nan nan nan nan nan nan nan nan nan nan 217 224 228 220 224 229 224 214 206 208 nan nan nan nan nan nan nan nan 248
nan nan nan nan nan nan nan nan nan nan nan nan nan nan nan nan nan nan nan nan nan nan nan nan nan 216 221 224 232 233 238 240 208 212 205 217 nan nan nan nan 232 nan 245 250
nan nan nan nan nan nan nan nan nan nan nan nan nan nan nan nan nan nan nan nan nan nan nan nan 217 221 223 223 219 nan 242 225 nan nan nan nan nan nan nan nan 226 234 242 246
nan nan nan nan nan nan nan nan nan nan nan nan nan nan nan nan nan nan nan nan nan nan nan nan 214 226 221 219 223 227 nan 231 231 nan nan nan nan nan nan nan 228 231 240 245
nan nan nan nan nan nan nan nan nan nan nan nan nan nan nan nan nan nan nan nan nan nan nan nan 218 225 228 226 227 235 240 247 244 251 248 244 222 228 227 225 237 237 235 242
nan nan nan nan nan nan nan nan nan nan nan nan nan nan nan nan nan nan nan nan nan nan nan nan 215 219 230 230 232 234 243 246 244 254 nan 227 230 235 242 231 230 235 237 241
nan nan nan nan nan nan nan nan nan nan nan nan nan nan nan nan nan 246 nan nan nan nan nan nan 214 212 223 228 230 228 226 225 240 243 229 228 235 235 237 238 247 242 242 239
nan nan nan nan nan nan nan nan nan nan nan nan nan nan nan nan 47 81 192 nan nan nan nan nan 207 206 218 224 224 224 227 236 249 251 266 257 252 247 232 230 239 227 241 241
nan nan nan nan nan nan nan nan nan nan nan nan nan nan nan nan nan 127 150 184 200 nan nan nan 204 197 193 213 221 221 221 222 238 238 247 245 249 256 279 240 237 252 244 246
nan nan nan nan nan nan nan nan nan nan nan nan nan nan nan nan 147 158 167 186 197 195 nan 213 197 201 199 184 201 215 203 212 214 218 244 266 262 270 274 258 245 246 241 245
nan nan nan nan nan nan nan nan nan nan nan nan nan nan nan 146 150 152 166 174 188 183 nan 208 197 194 184 181 194 212 227 236 237 233 261 275 278 259 267 249 245 238 242 249
nan nan nan nan nan nan nan nan nan nan nan nan nan nan nan 118 166 162 160 156 171 173 188 195 204 198 185 181 198 205 220 233 245 246 251 nan nan nan 247 222 233 235 241 250
nan nan nan nan nan nan nan nan nan nan nan nan nan nan 79 104 nan 174 176 183 177 199 199 196 198 199 192 177 187 202 221 226 242 237 244 251 250 257 225 219 225 234 244 248
nan nan nan nan nan nan nan nan nan nan nan nan nan nan nan nan 159 163 171 184 206 210 205 198 207 212 189 186 200 222 230 229 236 238 238 240 241 nan 240 235 235 242 243 nan
nan nan nan nan nan nan nan nan nan nan nan nan nan nan nan nan 166 156 168 173 200 202 200 206 250 232 234 216 215 218 228 237 238 242 236 237 248 nan 251 238 237 242 nan nan
nan nan nan nan nan nan nan nan nan nan nan nan nan nan nan nan nan 171 175 171 182 194 197 198 200 218 230 240 239 236 235 243 246 254 236 235 242 241 nan 232 251 nan nan nan
nan nan nan nan nan nan nan nan nan nan nan nan nan nan nan nan nan nan 174 172 173 184 196 202 196 206 218 227 240 248 252 254 250 245 233 237 240 242 nan 247 nan nan nan nan
nan nan nan nan nan nan nan nan nan nan nan nan nan nan nan nan nan nan 186 172 182 185 191 200 206 210 217 228 234 242 245 246 243 240 241 241 251 nan nan nan nan 233 nan nan
nan nan nan nan nan nan nan nan nan nan nan nan nan nan nan nan nan nan nan 177 182 192 195 207 218 222 225 225 231 235 236 237 237 234 nan nan nan nan nan nan nan nan nan nan
nan nan nan nan nan nan nan nan nan nan nan nan nan nan nan nan nan nan nan nan 187 203 207 215 222 231 230 229 227 228 226 229 nan nan nan nan nan nan nan nan nan nan nan nan
nan nan nan nan nan nan nan nan nan nan nan nan nan nan nan nan nan nan nan nan nan 182 196 205 208 222 nan 223 228 230 nan nan nan nan nan nan nan nan nan nan nan nan nan nan
nan nan nan nan nan nan nan nan nan nan nan nan nan nan nan nan nan nan nan nan nan nan nan 206 nan nan nan nan nan nan nan nan nan nan nan nan nan nan nan nan nan nan nan nan
nan nan nan nan nan nan nan nan nan nan nan nan nan nan nan nan nan nan nan nan nan nan nan nan nan nan nan nan nan nan nan nan nan nan nan nan nan nan nan nan nan nan nan nan
nan nan nan nan nan nan nan nan nan nan nan nan nan nan nan nan nan nan nan nan nan nan nan nan nan nan nan nan nan nan nan nan nan nan 192 nan nan nan nan nan nan nan nan nan
nan nan nan nan nan nan nan nan nan nan nan nan nan nan nan nan nan nan nan nan nan nan nan nan nan nan nan nan nan nan nan nan nan nan nan nan nan nan nan nan nan nan nan nan
nan nan nan nan nan nan nan nan nan nan nan nan nan nan nan nan nan nan nan nan nan nan nan nan nan nan nan nan nan nan nan nan nan nan nan nan nan nan nan nan nan nan nan nan